Location: Newark
(36.7000°N, 45.1333°E)
Time: 00:32:15
(UTC+00:00)

LightSail 2 - Pass Details

Date: 21 January 2020
Orbit: 698 x 723 km, 24.0° (Epoch: 24 February)

Event Time Altitude Azimuth Distance (km) Brightness Sun altitude
Rises 15:59:52 0° 241° (WSW) 3,086 9.7 -21.4°
Reaches altitude 10° 16:02:53 10° 224° (SW) 2,174 8.4 -21.9°
Maximum altitude 16:06:30 19° 178° (S) 1,635 7.1 -22.7°
Enters shadow 16:08:01 17° 156° (SSE) 1,743 7.0 -23.0°
